Tracking 30995 objects as of 7-Jul-2025
HD Live streaming from Space Station
objects crossing your sky now

STARLINK-11273

Track STARLINK-11273 now!
10-day predictions
STARLINK-11273 is classified as:


NORAD ID: 60913
Int'l Code: 2024-154L
Perigee: 366.0 km
Apogee: 367.7 km
Inclination: 53.2 °
Period: 91.7 minutes
Semi major axis: 6737 km
RCS: Unknown
Launch date: August 31, 2024
Source: United States (US)
Launch site: AIR FORCE EASTERN TEST RANGE (AFETR)
Your satellite tracking list
FENGYUN 1C DEB
Track 1 satellite(s)




NASA's NSSDC Master Catalog

Two Line Element Set (TLE):
1 60913U 24154L   25187.59540382 -.00001672  00000-0 -89392-5 0  9998
2 60913  53.1597 264.3303 0001219 101.0572 259.0583 15.69712852 49855
Source of the keplerian elements: AFSPC